This is the latest recevied weather packets stored in our database for station/object KK4WXG. If no packets are shown the sender has not sent any weather packets the latest 10 day(s).
| Time | Temp. | Humidity | Pressure | Rain* | Wind** | Luminosity | Snow |
|---|---|---|---|---|---|---|---|
| 1777958530 | 15° C | 70% | 1009.9 hPa | 0 mm | - | 0 W/m² | - |
| 1777958227 | 15° C | 69% | 1009.8 hPa | 0 mm | - | 0 W/m² | - |
| 1777957925 | 15° C | 69% | 1009.7 hPa | 0 mm | - | 0 W/m² | - |
| 1777957623 | 15° C | 68% | 1009.8 hPa | 0 mm | - | 0 W/m² | - |
| 1777957322 | 15.56° C | 67% | 1009.7 hPa | 0 mm | - | 0 W/m² | - |
| 1777957021 | 15.56° C | 66% | 1009.7 hPa | 0 mm | - | 0 W/m² | - |
| 1777956720 | 16.11° C | 66% | 1009.7 hPa | 0 mm | - | 0 W/m² | - |
| 1777956416 | 16.11° C | 64% | 1010 hPa | 0 mm | - | 0 W/m² | - |
| 1777956113 | 16.67° C | 64% | 1010 hPa | 0 mm | - | 0 W/m² | - |
| 1777955810 | 16.67° C | 63% | 1010 hPa | 0 mm | - | 0 W/m² | - |
| 1777955506 | 16.67° C | 63% | 1010 hPa | 0 mm | - | 0 W/m² | - |
| 1777955202 | 16.67° C | 63% | 1009.9 hPa | 0 mm | - | 0 W/m² | - |
| 1777954900 | 16.67° C | 62% | 1010 hPa | 0 mm | - | 0 W/m² | - |
| 1777954597 | 16.67° C | 62% | 1010 hPa | 0 mm | - | 0 W/m² | - |
| 1777954294 | 17.22° C | 61% | 1010 hPa | 0 mm | - | 0 W/m² | - |
| 1777953991 | 17.22° C | 61% | 1010 hPa | 0 mm | - | 0 W/m² | - |
| 1777953688 | 16.67° C | 61% | 1009.9 hPa | 0 mm | - | 0 W/m² | - |
| 1777953384 | 16.67° C | 61% | 1009.9 hPa | 0 mm | - | 0 W/m² | - |
| 1777953080 | 17.22° C | 61% | 1009.6 hPa | 0 mm | - | 0 W/m² | - |
| 1777952777 | 17.22° C | 61% | 1010 hPa | 0 mm | - | 0 W/m² | - |
| 1777952474 | 17.22° C | 60% | 1010 hPa | 0 mm | - | 0 W/m² | - |
| 1777952171 | 17.22° C | 60% | 1009.9 hPa | 0 mm | - | 0 W/m² | - |
| 1777951870 | 17.22° C | 60% | 1009.9 hPa | 0 mm | - | 0 W/m² | - |
| 1777951567 | 17.22° C | 60% | 1009.8 hPa | 0 mm | - | 0 W/m² | - |
| 1777951263 | 17.22° C | 60% | 1009.8 hPa | 0 mm | - | 0 W/m² | - |
* Rain latest hour (hover to see other rain measurements)
** Current wind speed in m/s (hover to see current wind gust speed)